Weather History for Ponce, PR

Change the Weather History Date:

Tuesday, November 6, 2012

  Actual Average Record
Temperature  
Mean Temperature 82 °F -  
Max Temperature 89 °F 87 °F 93 °F (1996)
Min Temperature 75 °F 72 °F 69 °F (1997)
Cooling Degree Days 17    
Growing Degree Days 32 (Base 50)    
Moisture  
Dew Point 74 °F    
Average Humidity 77    
Maximum Humidity 94    
Minimum Humidity 59    
Precipitation  
Precipitation 0.00 in - - ()
Sea Level Pressure  
Sea Level Pressure 29.91 in    
Wind  
Wind Speed 5 mph (ESE)    
Max Wind Speed 12 mph    
Max Gust Speed -    
Visibility 9 miles    
Events Rain    
Averages and records for this station are not official NWS values.
T = Trace of Precipitation, MM = Missing Value Source: NWS Daily Summary

Daily Weather History Graph

Daily Weather History Graph

Search for Another Location

Airport:

Trip Planner

Search our weather history database for the weather conditions in past years. The results will help you decide how hot, cold, wet, or windy it might be!

Date:

Astronomy

Nov. 06, 2012 Rise Set
Actual Time 6:27 AM AST 5:51 PM AST
Civil Twilight 6:05 AM AST 6:14 PM AST
Nautical Twilight 5:39 AM AST 6:40 PM AST
Astronomical Twilight 5:13 AM AST 7:06 PM AST
Moon No Moon Rise 12:24 PM AST (11/6)
Length of Visible Light 12h 09m
Length of Day
11h 23m
Waning Gibbous, 54% of the Moon is Illuminated
Nov 6
Waning Gibbous
Nov 6
Last Quarter
Nov 13
New
Nov 20
First Quarter
Nov 28
Full

Hourly Weather History & Observations

Time (AST) Temp. Heat Index Dew Point Humidity Pressure Visibility Wind Dir Wind Speed Gust Speed Precip Events Conditions
12:50 AM 80.6 °F 85.4 °F 73.4 °F 79% 29.93 in 8.0 mi NE 5.8 mph - N/A   Scattered Clouds
1:50 AM 77.0 °F - 73.4 °F 89% 29.93 in 8.0 mi Calm Calm - N/A Rain Light Rain
2:50 AM 77.0 °F - 73.4 °F 89% 29.90 in 8.0 mi ENE 5.8 mph - N/A   Mostly Cloudy
3:50 AM 75.2 °F - 73.4 °F 94% 29.90 in 8.0 mi ENE 5.8 mph - N/A   Scattered Clouds
6:50 AM 77.0 °F - 71.6 °F 83% 29.91 in 10.0 mi Calm Calm - N/A   Scattered Clouds
7:50 AM 78.8 °F - 73.4 °F 83% 29.94 in 10.0 mi NE 5.8 mph - N/A   Scattered Clouds
8:50 AM 84.2 °F 90.9 °F 73.4 °F 70% 29.95 in 10.0 mi East 11.5 mph - N/A   Partly Cloudy
9:50 AM 84.2 °F 90.9 °F 73.4 °F 70% 29.95 in 10.0 mi ESE 6.9 mph - N/A   Scattered Clouds
12:50 PM 89.6 °F 98.2 °F 73.4 °F 59% 29.90 in 10.0 mi SSE 11.5 mph - N/A   Partly Cloudy
1:50 PM 89.6 °F 102.2 °F 77.0 °F 66% 29.87 in 10.0 mi SE 11.5 mph - N/A   Partly Cloudy
2:50 PM 89.6 °F 102.2 °F 77.0 °F 66% 29.87 in 10.0 mi ESE 9.2 mph - N/A   Scattered Clouds
3:50 PM 87.8 °F 99.7 °F 77.0 °F 70% 29.87 in 10.0 mi South 11.5 mph - N/A   Scattered Clouds
4:50 PM 87.8 °F 99.7 °F 77.0 °F 70% 29.87 in 10.0 mi South 9.2 mph - N/A   Scattered Clouds
5:50 PM 84.2 °F 92.3 °F 75.2 °F 74% 29.89 in 10.0 mi SE 5.8 mph - N/A   Mostly Cloudy
6:50 PM 82.4 °F 89.5 °F 75.2 °F 79% 29.89 in 8.0 mi Calm Calm - N/A   Mostly Cloudy
7:50 PM 80.6 °F 85.4 °F 73.4 °F 79% 29.91 in 8.0 mi NE 5.8 mph - N/A   Scattered Clouds
8:50 PM 80.6 °F 85.4 °F 73.4 °F 79% 29.92 in 8.0 mi Calm Calm - N/A   Partly Cloudy
9:50 PM 80.6 °F 85.4 °F 73.4 °F 79% 29.92 in 8.0 mi Calm Calm - N/A   Partly Cloudy
10:50 PM 80.6 °F 85.4 °F 73.4 °F 79% 29.93 in 10.0 mi Calm Calm - N/A   Partly Cloudy
11:50 PM 77.0 °F - 73.4 °F 89% 29.92 in 10.0 mi Calm Calm - N/A   Partly Cloudy